[[{"header":{"parameterUnit":"m.s-1","parameterCategory":1,"la1":30.2991,"la2":30.254,"lo1":-89.0895,"lo2":-89.0444,"dy":0.0017,"dx":0.0017,"nx":28,"ny":28,"refTime":"2024-04-10T03:00:00:Z","depth":0,"parameterNumber":2,"parameterNumberName":"U-component_of_WINDS"},"data":[0,0,0,0,0,0,0,0,0,0,0,0,0,0,0,0,0,0,0,0,0,0,0,0,0,0,0,0,0,0,0,0,0,0,0,0,0,0,0,0,0,0,0,0,0,0,0,0,0,0,0,0,0,0,0,0,0,0,-1.6358,-1.6362,0,-1.6742,-1.6746,-1.6751,-1.6948,-1.6948,-1.6948,-1.6948,-1.735,-1.736,-1.737,0,0,0,0,0,0,0,0,0,0,0,0,0,-1.5802,-1.5811,-1.6357,-1.6362,-1.6367,-1.6741,-1.6746,-1.6752,-1.6948,-1.6948,-1.6948,-1.6948,-1.7346,-1.7359,-1.7371,0,0,0,0,0,0,0,0,0,0,0,0,0,-1.61,-1.5814,-1.6357,-1.651,-1.6527,-1.674,-1.6747,-1.6753,-1.6948,-1.6948,-1.6948,-1.6948,-1.7342,-1.7357,-1.7373,-1.7465,0,0,-1.7421,-1.7428,0,0,0,0,0,0,0,0,-1.6083,-1.6121,-1.6482,-1.6499,-1.652,-1.6797,-1.6698,-1.6992,-1.6948,-1.6788,-1.6948,-1.6949,-1.7166,-1.7196,-1.7268,-1.7484,-1.7501,-1.7423,-1.7432,-1.7439,-1.7443,0,0,0,0,0,0,0,-1.6062,-1.6105,-1.651,-1.6487,-1.651,-1.6562,-1.6605,-1.6755,-1.6971,-1.6802,-1.6817,-1.686,-1.7176,-1.7252,-1.7279,-1.7507,-1.7422,-1.7436,-1.7446,-1.7452,-1.7819,-1.7819,0,0,0,0,0,0,-1.6016,-1.6087,-1.6498,-1.6521,-1.6297,-1.6572,-1.6619,-1.6708,-1.697,-1.701,-1.6859,-1.6867,-1.7225,-1.726,-1.7294,-1.742,-1.7439,-1.7454,-1.7463,-1.7819,-1.7819,-1.782,0,0,0,0,0,0,-1.6003,-1.605,-1.6482,-1.6308,-1.6367,-1.6581,-1.6679,-1.6715,-1.6792,-1.7013,-1.7053,-1.6896,-1.7227,-1.7272,-1.7421,-1.7437,-1.7461,-1.7475,-1.7819,-1.7819,-1.7819,-1.7672,0,0,0,0,0,0,-1.5986,-1.6045,-1.608,-1.6307,-1.6375,-1.66,-1.668,-1.6723,-1.6817,-1.6832,-1.7059,-1.7097,-1.7231,-1.7396,-1.7436,-1.7459,-1.7487,-1.7818,-1.7819,-1.7819,-1.7676,-1.7667,-1.7659,0,0,0,0,0,-1.5966,-1.6025,-1.6081,-1.6129,-1.6424,-1.66,-1.664,-1.679,-1.6817,-1.6856,-1.6999,-1.709,-1.7428,-1.741,-1.7457,-1.7484,-1.7818,-1.7819,-1.7819,-1.768,-1.7669,-1.7659,0,0,0,0,0,0,-1.5797,-1.6058,-1.6122,-1.6256,-1.6404,-1.6633,-1.6687,-1.6773,-1.6919,-1.6927,-1.711,-1.7159,-1.7292,-1.7404,-1.7379,-1.7588,-1.7632,-1.7642,-1.751,-1.7502,-1.7493,-1.7464,-1.7501,0,0,0,0,0,-1.5775,-1.5894,-1.6116,-1.6213,-1.6283,-1.6471,-1.6554,-1.6657,-1.6819,-1.6883,-1.7037,-1.7192,-1.7334,-1.7424,-1.7567,-1.7693,-1.7746,-1.7735,-1.7726,-1.7718,-1.7725,-1.7801,-1.7799,-1.7822,-1.7822,-1.7822,0,0,-1.5732,-1.5889,-1.5953,-1.6183,-1.631,-1.6431,-1.6523,-1.6648,-1.6741,-1.6904,-1.7053,-1.717,-1.7357,-1.7494,-1.7563,-1.7592,-1.773,-1.7719,-1.7711,-1.7723,-1.7802,-1.7799,-1.7797,-1.7822,-1.7822,-1.7822,0,0,-1.5715,-1.5845,-1.594,-1.6064,-1.6254,-1.6378,-1.64,-1.6616,-1.67,-1.6852,-1.6976,-1.7091,-1.733,-1.7458,-1.7554,-1.7584,-1.7673,-1.7625,-1.7582,-1.7654,-1.7652,-1.7651,-1.7663,-1.7665,-1.7631,-1.7631,-1.7631,0,-1.5639,-1.5824,-1.5979,-1.6096,-1.6194,-1.6343,-1.6443,-1.6557,-1.6784,-1.6849,-1.6877,-1.7181,-1.7317,-1.7487,-1.7493,-1.7566,-1.7599,-1.7601,-1.7639,-1.764,-1.7642,-1.7655,-1.7659,-1.7624,-1.7625,-1.7625,-1.7626,0,-1.5721,-1.5847,-1.5902,-1.6114,-1.6219,-1.6326,-1.6499,-1.6587,-1.668,-1.6802,-1.6956,-1.7123,-1.7303,-1.735,-1.7444,-1.7534,-1.7546,-1.7603,-1.7652,-1.763,-1.7646,-1.7652,-1.7614,-1.7616,-1.7618,-1.762,0,0,-1.5612,-1.5906,-1.5923,-1.6021,-1.6241,-1.6343,-1.6458,-1.663,-1.6702,-1.6854,-1.6956,-1.7154,-1.7209,-1.7318,-1.7427,-1.7489,-1.7503,-1.7541,-1.7548,-1.7529,-1.7615,-1.7571,-1.7574,-1.7563,-1.7565,-1.7566,-1.76,0,-1.5628,-1.5837,-1.5979,-1.6135,-1.6254,-1.6397,-1.6497,-1.6643,-1.676,-1.6881,-1.7012,-1.7149,-1.721,-1.7277,-1.7345,-1.7487,-1.7523,-1.7486,-1.7663,-1.7667,-1.7613,-1.7583,-1.7537,-1.7561,-1.7607,-1.7608,-1.7609,0,-1.5675,-1.5818,-1.5983,-1.6189,-1.6245,-1.6332,-1.6501,-1.6614,-1.6783,-1.6864,-1.6984,-1.7094,-1.7224,-1.7259,-1.7441,-1.7413,-1.7493,-1.7574,-1.7578,-1.7602,-1.7637,-1.7607,-1.7572,-1.7576,-1.762,-1.7619,-1.7618,0,-1.5579,-1.5814,-1.5944,-1.6023,-1.6266,-1.6324,-1.6428,-1.6598,-1.6692,-1.6841,-1.6904,-1.7067,-1.7156,-1.728,-1.7432,-1.7443,-1.7599,-1.7647,-1.7672,-1.7668,-1.7701,-1.7697,-1.7679,-1.7748,-1.7748,-1.7748,-1.7748,0,-1.5583,-1.5679,-1.5904,-1.5984,-1.6097,-1.626,-1.6368,-1.6485,-1.6634,-1.6741,-1.6875,-1.6973,-1.7167,-1.7289,-1.7409,-1.7542,-1.7582,-1.7652,-1.7683,-1.7641,-1.7632,-1.7698,-1.7701,-1.775,-1.7749,-1.7749,-1.7749,0,-1.5497,-1.5651,-1.5802,-1.6018,-1.6074,-1.6148,-1.6335,-1.6419,-1.6541,-1.6675,-1.6716,-1.691,-1.7061,-1.7224,-1.7431,-1.7512,-1.7639,-1.7682,-1.7581,-1.7599,-1.7615,-1.7612,-1.7641,-1.7654,-1.7711,-1.771,-1.7709,0,-1.549,-1.5567,-1.579,-1.5869,-1.5969,-1.6096,-1.6192,-1.6356,-1.6451,-1.6648,-1.6709,-1.6869,-1.7007,-1.7241,-1.7402,-1.7561,-1.761,-1.7609,-1.7636,-1.7591,-1.7613,-1.7606,-1.7616,-1.7602,-1.76,-1.7599,-1.7598,0,-1.5462,-1.5534,-1.5665,-1.5823,-1.5933,-1.6066,-1.6205,-1.6263,-1.6455,-1.6555,-1.6709,-1.6815,-1.7024,-1.7182,-1.736,-1.7471,-1.7568,-1.7588,-1.7603,-1.7562,-1.75,-1.7535,-1.7561,-1.7588,-1.7589,-1.7589,-1.759,-1.759,-1.5418,-1.5492,-1.566,-1.5802,-1.5923,-1.6049,-1.6138,-1.627,-1.6401,-1.6582,-1.6671,-1.6825,-1.6994,-1.7242,-1.735,-1.7474,-1.7504,-1.7525,-1.7531,-1.7533,-1.7523,-1.7478,-1.7507,-1.7508,-1.7509,-1.7509,-1.7509,0,-1.5398,-1.5512,-1.564,-1.5828,-1.594,-1.6016,-1.6174,-1.6263,-1.6396,-1.6543,-1.6674,-1.6852,-1.7005,-1.7177,-1.7341,-1.7408,-1.7456,-1.7446,-1.7444,-1.7468,-1.7486,-1.7458,-1.7404,-1.7404,-1.7404,-1.7404,-1.7404,-1.7404,-1.5401,-1.5531,-1.5622,-1.5815,-1.593,-1.6079,-1.6162,-1.628,-1.6399,-1.6589,-1.6716,-1.6826,-1.6984,-1.7161,-1.7306,-1.7353,-1.7408,-1.7385,-1.7444,-1.7458,-1.7467,-1.7475,-1.7449,-1.7395,-1.7395,-1.7417,-1.7417,-1.7417]},{"header":{"parameterUnit":"m.s-1","parameterCategory":1,"la1":30.2991,"la2":30.254,"lo1":-89.0895,"lo2":-89.0444,"dy":0.0017,"dx":0.0017,"nx":28,"ny":28,"refTime":"2024-04-10T03:00:00:Z","depth":0,"parameterNumber":3,"parameterNumberName":"V-component_of_WINDS"},"data":[0,0,0,0,0,0,0,0,0,0,0,0,0,0,0,0,0,0,0,0,0,0,0,0,0,0,0,0,0,0,0,0,0,0,0,0,0,0,0,0,0,0,0,0,0,0,0,0,0,0,0,0,0,0,0,0,0,0,11.5559,11.5562,0,11.5863,11.5867,11.587,11.5844,11.5839,11.5835,11.583,11.6135,11.6147,11.6159,0,0,0,0,0,0,0,0,0,0,0,0,0,11.4947,11.4958,11.5558,11.5562,11.5566,11.5863,11.5867,11.5871,11.5845,11.5839,11.5833,11.5828,11.6131,11.6145,11.616,0,0,0,0,0,0,0,0,0,0,0,0,0,11.5228,11.4962,11.5558,11.5589,11.5595,11.5862,11.5867,11.5872,11.5846,11.5839,11.5832,11.5825,11.6126,11.6144,11.6162,11.6416,0,0,11.6219,11.6227,0,0,0,0,0,0,0,0,11.5212,11.525,11.558,11.5587,11.5594,11.5809,11.5763,11.6054,11.5848,11.575,11.583,11.5822,11.6031,11.6057,11.6129,11.643,11.6443,11.6221,11.6232,11.624,11.6245,0,0,0,0,0,0,0,11.5192,11.5237,11.5679,11.5585,11.5594,11.5585,11.5618,11.5818,11.5926,11.5758,11.5757,11.5794,11.6034,11.6111,11.6136,11.6448,11.622,11.6237,11.6248,11.6256,11.6971,11.6978,0,0,0,0,0,0,11.5167,11.5221,11.5669,11.5688,11.5382,11.5602,11.5638,11.5747,11.5923,11.5944,11.5799,11.5791,11.6083,11.6115,11.6147,11.6455,11.624,11.6257,11.6268,11.6963,11.6972,11.6981,0,0,0,0,0,0,11.5154,11.5207,11.5657,11.5454,11.5511,11.562,11.5742,11.5756,11.5834,11.5955,11.5973,11.586,11.6079,11.6121,11.635,11.6465,11.6266,11.6283,11.6954,11.6966,11.6977,11.7072,0,0,0,0,0,0,11.5136,11.5203,11.5301,11.5457,11.5522,11.5857,11.5749,11.5767,11.5867,11.586,11.6016,11.6035,11.6077,11.6322,11.6368,11.6487,11.6297,11.6944,11.6959,11.6973,11.7059,11.7086,11.7108,0,0,0,0,0,11.5115,11.5315,11.5307,11.5361,11.5648,11.5863,11.59,11.5946,11.5877,11.5976,11.6053,11.603,11.6445,11.6346,11.6397,11.6523,11.6937,11.6955,11.6972,11.7048,11.708,11.7108,0,0,0,0,0,0,11.5167,11.5335,11.5328,11.5585,11.5711,11.5858,11.5985,11.5979,11.6124,11.6111,11.6159,11.6195,11.6425,11.6497,11.6383,11.6778,11.6681,11.671,11.6722,11.6753,11.6778,11.6754,11.6313,0,0,0,0,0,11.5209,11.5372,11.5509,11.5722,11.5786,11.5875,11.597,11.5995,11.6126,11.6178,11.6272,11.6397,11.6556,11.6659,11.6812,11.707,11.7103,11.7183,11.7207,11.7227,11.725,11.7391,11.7427,11.7039,11.7039,11.7038,0,0,11.5296,11.5408,11.5507,11.5736,11.5836,11.6001,11.592,11.6098,11.622,11.6204,11.6426,11.65,11.6643,11.6888,11.7,11.6955,11.7365,11.7249,11.7264,11.7277,11.7413,11.7449,11.7482,11.7051,11.7049,11.7047,0,0,11.5539,11.5641,11.583,11.5933,11.6086,11.6144,11.619,11.634,11.6389,11.6613,11.6605,11.675,11.7022,11.7124,11.7212,11.7496,11.7479,11.7544,11.7672,11.7808,11.7839,11.7866,11.7965,11.8,11.7568,11.7568,11.7568,0,11.5626,11.5878,11.5927,11.6108,11.6207,11.6204,11.6394,11.649,11.6685,11.6752,11.67,11.7043,11.7139,11.7407,11.7476,11.7548,11.7599,11.7525,11.7831,11.7859,11.7885,11.798,11.8017,11.7575,11.7574,11.7573,11.7572,0,11.5977,11.6152,11.6285,11.6476,11.6591,11.6776,11.685,11.6961,11.6976,11.7039,11.7267,11.7383,11.7559,11.7625,11.764,11.7895,11.7862,11.7821,11.7724,11.7928,11.8018,11.8055,11.7584,11.7582,11.758,11.7578,0,0,11.6258,11.6477,11.6524,11.6611,11.6781,11.6915,11.7099,11.7274,11.7367,11.7501,11.7655,11.7887,11.7849,11.7949,11.7976,11.8097,11.8312,11.804,11.8044,11.8084,11.8597,11.8626,11.8667,11.8303,11.831,11.8316,11.8584,0,11.6516,11.6845,11.6895,11.7183,11.7343,11.7343,11.7503,11.7623,11.7688,11.7831,11.7901,11.8064,11.8004,11.8063,11.8183,11.826,11.8415,11.8242,11.8443,11.8449,11.8404,11.8715,11.8746,11.8993,11.862,11.8626,11.863,0,11.6861,11.7008,11.7313,11.7461,11.7531,11.7674,11.7838,11.7976,11.8112,11.815,11.8263,11.8276,11.8464,11.8362,11.862,11.8502,11.8587,11.8638,11.8648,11.8666,11.855,11.8738,11.9073,11.9109,11.8687,11.8682,11.8678,0,11.7033,11.7307,11.7525,11.7599,11.7778,11.7879,11.7958,11.8087,11.8189,11.8332,11.8398,11.856,11.8648,11.8772,11.8828,11.8749,11.9082,11.8985,11.9116,11.9115,11.9184,11.9178,11.9535,11.9244,11.9243,11.9243,11.9242,0,11.7314,11.75,11.7604,11.7738,11.7945,11.8001,11.8204,11.828,11.8395,11.8542,11.8551,11.8688,11.8754,11.89,11.8945,11.9151,11.9191,11.9225,11.9234,11.9223,11.9219,11.9277,11.9261,11.9253,11.925,11.9249,11.9247,0,11.754,11.7618,11.7855,11.8007,11.8049,11.8195,11.8324,11.8452,11.8516,11.8701,11.8748,11.8848,11.902,11.9089,11.93,11.933,11.9566,11.9563,11.9521,11.9523,11.9649,11.9635,12.0054,12.011,11.9784,11.9788,11.979,0,11.7713,11.7856,11.8025,11.8125,11.8208,11.8369,11.8474,11.8535,11.8643,11.8809,11.8917,11.909,11.9232,11.9507,11.9596,11.9757,11.9756,11.9892,11.978,11.9764,11.9755,11.9745,11.9758,11.9911,11.9914,11.9917,11.9919,0,11.8011,11.8043,11.8196,11.8363,11.8488,11.8622,11.8751,11.8832,11.8912,11.9033,11.9211,11.9321,11.9538,11.9708,11.9874,11.9952,11.9949,11.9955,11.9993,11.9981,11.995,11.9966,11.9574,11.9944,11.9941,11.9939,11.9938,11.9937,11.8214,11.8342,11.8481,11.865,11.8755,11.8876,11.9004,11.9086,11.9237,11.9419,11.9446,11.9636,11.9767,11.9991,12.0076,12.0224,12.0188,12.0244,12.0258,12.027,12.0278,11.9929,12.0254,12.0254,12.0253,12.0253,12.0252,0,11.8511,11.8601,11.8757,11.894,11.9073,11.9062,11.9205,11.9316,11.9484,11.9609,11.9749,11.9953,12.0119,12.0223,12.039,12.0488,12.049,12.0529,12.0521,12.0539,12.0301,12.025,12.0525,12.0524,12.0524,12.0524,12.0524,12.0524,11.8681,11.8895,11.8944,11.921,11.9298,11.9487,11.9569,11.9681,11.9781,12.0009,12.0148,12.0216,12.0332,12.0508,12.0659,12.0685,12.0744,12.0786,12.0808,12.0584,12.0556,12.0528,12.0481,12.0799,12.0799,12.1033,12.1035,12.1037]}]]